User: anonymous   Login
Location: Cahas Mountain Overlook
(37.0833°N, 80.1000°W)
Time: 14:56:48
(UTC-04:00)
Language:

S-56A Canister/Altair - Orbit

View from above orbital plane
View from above orbital plane
View from above satellite
View from above satellite

Ground track
Ground track

The orbit data is extracted from the following two-line orbital elements,

1 00082U 61004B   24205.58127493  .00001269  00000-0  11058-2 0  9998
2 00082  38.8547  54.5618 1164702 110.1612 262.8019 12.26853551991587
Epoch (UTC): 23 July 2024 13:57:02
Eccentricity: 0.1164702
inclination: 38.8547°
perigee height: 638 km
apogee height: 2488 km
right ascension of ascending node: 54.5618°
argument of perigee: 110.1612°
revolutions per day: 12.26853551
mean anomaly at epoch: 262.8019°
orbit number at epoch: 99158

The dashed part of the orbit path shows where the satellite is in the earth's shadow,  

DLR